401P/McNaught (2006)

Japanese version
Home page
Updated on October 17, 2020

---------------------------------------------------------------------

* Profile

Designation 401P/2006 H1
Discovery Date April 29, 2006
Magnitude 17.9 mag
Discoverer R. H. McNaught (Siding Spring Survey)

* Pictures

* Orbital Elements

Epoch 2006 May 25.0 TT = JDT 2453880.5                                          
T 2006 May 7.37927 TT                                   Rudenko                 
q   2.3784594            (2000.0)            P               Q                  
n   0.07274427     Peri.  310.13422     +0.64627344     +0.76310575             
a   5.6833384      Node     0.13028     -0.61473937     +0.52101512             
e   0.5815031      Incl.   12.87030     -0.45213509     +0.38237791             
P  13.5                                                                         
From 221 observations 2006 Apr. 29-2020 Sept. 12, mean residual 0".6.           

* Finding Charts

* Magnitudes Graph

        m1 = 8.0 + 5 log d + 20.0 log r

---------------------------------------------------------------------

The orbital elements are published on M.P.E.C. 2020-R159.
The charts are made with StellaNavigator Ver.2.0 for Windows (AstroArts / ASCII).
The magnitudes graphs are made with Comet for Windows.

---------------------------------------------------------------------

Copyright(C) Seiichi Yoshida (comet@aerith.net). All rights reserved.